DLH178 EDDH-EDDB

Flight info

Callsign DLH178
Flight time 0h 35m
Altitude 23000
Route RAMAR6G RAMAR Z998 PITEN L619 VIBIS T209 OGBER OGBER1R
Aircraft A320/M-SDE3FGHIRWY/LB1

Departure

Time 2026-05-05 17:09
Airport Hamburg Helmut Schmidt Airport (EDDH)

Arrival

Time 2026-05-05 17:44
Airport Berlin Brandenburg Airport (EDDB)
Time Latitude Longitude Altitude Speed Heading
2026-05-05 16:51 53.63415 10.00337 49 ft 0 kts 84°
2026-05-05 17:01 53.63414 10.00315 45 ft 4 kts 84°
2026-05-05 17:01 53.63412 10.00275 44 ft 2 kts 84°
2026-05-05 17:01 53.63414 10.00237 43 ft 4 kts 135°
2026-05-05 17:01 53.63435 10.00221 43 ft 4 kts 176°
2026-05-05 17:02 53.63440 10.00221 44 ft 1 kts 176°
2026-05-05 17:04 53.63423 10.00209 46 ft 8 kts 208°
2026-05-05 17:05 53.63371 10.00168 48 ft 9 kts 192°
2026-05-05 17:05 53.63288 10.00170 48 ft 12 kts 175°
2026-05-05 17:05 53.63210 10.00181 48 ft 11 kts 175°
2026-05-05 17:05 53.63142 10.00189 48 ft 10 kts 175°
2026-05-05 17:06 53.63058 10.00168 47 ft 15 kts 207°
2026-05-05 17:06 53.62993 10.00103 46 ft 0 kts 212°
2026-05-05 17:06 53.62990 10.00101 47 ft 5 kts 212°
2026-05-05 17:06 53.62977 10.00087 48 ft 5 kts 212°
2026-05-05 17:07 53.62914 9.99978 48 ft 12 kts 241°
2026-05-05 17:07 53.62876 9.99856 47 ft 12 kts 242°
2026-05-05 17:07 53.62894 9.99727 44 ft 13 kts 324°
2026-05-05 17:07 53.62933 9.99687 45 ft 0 kts 332°
2026-05-05 17:08 53.62937 9.99683 45 ft 6 kts 332°
2026-05-05 17:08 53.63130 9.99515 46 ft 66 kts 333°
2026-05-05 17:08 53.63739 9.98990 47 ft 128 kts 332°
2026-05-05 17:08 53.64674 9.98178 158 ft 162 kts 334°
2026-05-05 17:09 53.65653 9.97344 773 ft 160 kts 336°
2026-05-05 17:09 53.66665 9.96511 1321 ft 169 kts 332°
2026-05-05 17:09 53.67796 9.95541 1574 ft 193 kts 332°
2026-05-05 17:09 53.69107 9.94750 2093 ft 208 kts 351°
2026-05-05 17:10 53.70583 9.94675 2771 ft 215 kts 358°
2026-05-05 17:10 53.72091 9.94799 3543 ft 221 kts 10°
2026-05-05 17:10 53.73499 9.95909 4281 ft 231 kts 37°
2026-05-05 17:10 53.74546 9.98135 4665 ft 258 kts 62°
2026-05-05 17:11 53.75366 10.00976 5147 ft 277 kts 63°
2026-05-05 17:11 53.76211 10.03953 5912 ft 284 kts 63°
2026-05-05 17:11 53.77072 10.06991 6718 ft 290 kts 63°
2026-05-05 17:11 53.77955 10.10081 7511 ft 294 kts 63°
2026-05-05 17:12 53.78854 10.13219 8329 ft 298 kts 63°
2026-05-05 17:12 53.79767 10.16393 9142 ft 303 kts 63°
2026-05-05 17:12 53.80695 10.19629 9729 ft 309 kts 63°
2026-05-05 17:12 53.81634 10.22908 9885 ft 311 kts 64°
2026-05-05 17:13 53.82620 10.26358 9920 ft 339 kts 64°
2026-05-05 17:13 53.83613 10.29975 9920 ft 343 kts 69°
2026-05-05 17:13 53.84215 10.33788 9916 ft 327 kts 82°
2026-05-05 17:13 53.84310 10.37550 9919 ft 323 kts 96°
2026-05-05 17:14 53.83750 10.41321 9925 ft 343 kts 117°
2026-05-05 17:14 53.82400 10.44707 9917 ft 345 kts 132°
2026-05-05 17:14 53.80878 10.47795 9921 ft 349 kts 133°
2026-05-05 17:14 53.79341 10.50819 10286 ft 331 kts 134°
2026-05-05 17:15 53.77863 10.53705 11527 ft 310 kts 134°
2026-05-05 17:15 53.76501 10.56362 12898 ft 289 kts 134°
2026-05-05 17:15 53.75218 10.58863 13884 ft 284 kts 134°
2026-05-05 17:15 53.73919 10.61385 14543 ft 286 kts 135°
2026-05-05 17:16 53.72607 10.63926 15161 ft 288 kts 135°
2026-05-05 17:16 53.71286 10.66495 15784 ft 291 kts 135°
2026-05-05 17:16 53.69958 10.69090 16407 ft 293 kts 135°
2026-05-05 17:16 53.68618 10.71712 17014 ft 296 kts 135°
2026-05-05 17:17 53.67266 10.74356 17620 ft 299 kts 135°
2026-05-05 17:17 53.65898 10.77023 18223 ft 302 kts 136°
2026-05-05 17:17 53.64515 10.79707 18743 ft 304 kts 136°
2026-05-05 17:17 53.63122 10.82409 19274 ft 307 kts 136°
2026-05-05 17:18 53.61717 10.85131 19800 ft 309 kts 136°
2026-05-05 17:18 53.60303 10.87867 20329 ft 311 kts 136°
2026-05-05 17:18 53.58877 10.90628 20833 ft 314 kts 136°
2026-05-05 17:18 53.57439 10.93409 21345 ft 316 kts 136°
2026-05-05 17:19 53.55989 10.96211 21848 ft 319 kts 137°
2026-05-05 17:19 53.54525 10.99040 22359 ft 322 kts 137°
2026-05-05 17:19 53.53050 11.01887 22806 ft 327 kts 137°
2026-05-05 17:19 53.51513 11.04830 22908 ft 343 kts 137°
2026-05-05 17:20 53.49889 11.07920 22905 ft 362 kts 136°
2026-05-05 17:20 53.48181 11.11176 22911 ft 380 kts 136°
2026-05-05 17:20 53.46397 11.14590 22904 ft 398 kts 136°
2026-05-05 17:20 53.44536 11.18161 22905 ft 415 kts 135°
2026-05-05 17:21 53.42600 11.21881 22912 ft 430 kts 135°
2026-05-05 17:21 53.40589 11.25740 22903 ft 444 kts 135°
2026-05-05 17:21 53.38541 11.29664 22893 ft 456 kts 135°
2026-05-05 17:22 53.34266 11.37816 22888 ft 475 kts 135°
2026-05-05 17:22 53.32065 11.41991 22895 ft 482 kts 135°
2026-05-05 17:22 53.29839 11.46206 22891 ft 485 kts 135°
2026-05-05 17:22 53.27603 11.50429 22899 ft 485 kts 135°
2026-05-05 17:23 53.25366 11.54650 22893 ft 485 kts 135°
2026-05-05 17:23 53.23130 11.58867 22888 ft 485 kts 135°
2026-05-05 17:23 53.20894 11.63080 22890 ft 485 kts 135°
2026-05-05 17:23 53.18662 11.67278 22887 ft 485 kts 135°
2026-05-05 17:24 53.16423 11.71485 22888 ft 484 kts 135°
2026-05-05 17:24 53.14215 11.75624 22890 ft 484 kts 135°
2026-05-05 17:24 53.11974 11.79812 22882 ft 484 kts 135°
2026-05-05 17:24 53.09732 11.83991 22742 ft 485 kts 135°
2026-05-05 17:25 53.07496 11.88153 22116 ft 479 kts 135°
2026-05-05 17:25 53.06001 11.90932 21699 ft 476 kts 135°
2026-05-05 17:25 53.02769 11.95654 20910 ft 461 kts 152°
2026-05-05 17:25 52.99984 11.98215 20332 ft 456 kts 155°
2026-05-05 17:26 52.97196 12.00679 19764 ft 452 kts 155°
2026-05-05 17:26 52.94429 12.03104 19201 ft 448 kts 155°
2026-05-05 17:26 52.91686 12.05497 18652 ft 445 kts 155°
2026-05-05 17:26 52.88951 12.07873 18102 ft 441 kts 155°
2026-05-05 17:27 52.86238 12.10203 17486 ft 438 kts 155°
2026-05-05 17:27 52.83538 12.12495 16876 ft 434 kts 155°
2026-05-05 17:27 52.80925 12.14968 16275 ft 433 kts 146°
2026-05-05 17:27 52.78728 12.18332 15667 ft 430 kts 136°
2026-05-05 17:28 52.76688 12.21907 15018 ft 423 kts 135°
2026-05-05 17:28 52.74726 12.25387 14388 ft 404 kts 135°
2026-05-05 17:28 52.72862 12.28705 13877 ft 385 kts 135°
2026-05-05 17:28 52.71082 12.31873 13342 ft 368 kts 135°
2026-05-05 17:29 52.69374 12.34900 12792 ft 353 kts 135°
2026-05-05 17:29 52.67727 12.37803 12251 ft 340 kts 135°
2026-05-05 17:29 52.66135 12.40599 11713 ft 329 kts 135°
2026-05-05 17:29 52.64591 12.43305 11185 ft 319 kts 136°
2026-05-05 17:30 52.63091 12.45930 10666 ft 310 kts 136°
2026-05-05 17:30 52.61632 12.48481 10193 ft 301 kts 136°
2026-05-05 17:30 52.60215 12.50958 9982 ft 296 kts 136°
2026-05-05 17:30 52.58810 12.53409 10049 ft 297 kts 136°
2026-05-05 17:31 52.57392 12.55874 10025 ft 297 kts 136°
2026-05-05 17:31 52.55976 12.58337 9925 ft 296 kts 136°
2026-05-05 17:31 52.54547 12.60760 9806 ft 294 kts 141°
2026-05-05 17:31 52.52854 12.62483 9665 ft 281 kts 155°
2026-05-05 17:32 52.51152 12.63929 9542 ft 270 kts 155°
2026-05-05 17:32 52.49549 12.65305 9402 ft 250 kts 155°
2026-05-05 17:32 52.48051 12.66597 9123 ft 239 kts 155°
2026-05-05 17:32 52.46602 12.67844 8787 ft 232 kts 155°
2026-05-05 17:33 52.45175 12.69067 8441 ft 232 kts 155°
2026-05-05 17:33 52.43739 12.70288 8129 ft 231 kts 155°
2026-05-05 17:33 52.42326 12.71488 7894 ft 228 kts 155°
2026-05-05 17:33 52.40923 12.72677 7612 ft 226 kts 155°
2026-05-05 17:34 52.39526 12.73858 7325 ft 225 kts 155°
2026-05-05 17:34 52.38144 12.75020 6920 ft 223 kts 155°
2026-05-05 17:34 52.36768 12.76173 6471 ft 222 kts 155°
2026-05-05 17:34 52.35396 12.77321 6021 ft 221 kts 155°
2026-05-05 17:35 52.34028 12.78454 5568 ft 220 kts 155°
2026-05-05 17:35 52.32664 12.79568 5131 ft 219 kts 155°
2026-05-05 17:35 52.31296 12.80666 4843 ft 218 kts 155°
2026-05-05 17:35 52.29950 12.81731 4573 ft 217 kts 155°
2026-05-05 17:36 52.28693 12.83055 4290 ft 215 kts 130°
2026-05-05 17:36 52.28060 12.85215 4055 ft 212 kts 101°
2026-05-05 17:36 52.27846 12.87615 3996 ft 214 kts 96°
2026-05-05 17:36 52.27696 12.90035 4011 ft 215 kts 95°
2026-05-05 17:37 52.27554 12.92467 4011 ft 215 kts 95°
2026-05-05 17:37 52.27460 12.94101 4011 ft 215 kts 95°
2026-05-05 17:37 52.27275 12.97324 4013 ft 215 kts 95°
2026-05-05 17:37 52.27135 12.99756 4011 ft 215 kts 95°
2026-05-05 17:38 52.26994 13.02183 4014 ft 215 kts 95°
2026-05-05 17:38 52.26854 13.04612 4013 ft 215 kts 95°
2026-05-05 17:38 52.26845 13.07034 3999 ft 214 kts 76°
2026-05-05 17:38 52.27343 13.09321 4011 ft 214 kts 68°
2026-05-05 17:39 52.27902 13.11574 4010 ft 214 kts 68°
2026-05-05 17:39 52.28454 13.13834 4013 ft 214 kts 68°
2026-05-05 17:39 52.28997 13.16080 4000 ft 208 kts 68°
2026-05-05 17:39 52.29524 13.18263 3926 ft 206 kts 68°
2026-05-05 17:40 52.30048 13.20434 3704 ft 204 kts 68°
2026-05-05 17:40 52.30559 13.22556 3450 ft 203 kts 68°
2026-05-05 17:40 52.31081 13.24728 3179 ft 202 kts 68°
2026-05-05 17:40 52.31588 13.26834 2913 ft 201 kts 68°
2026-05-05 17:41 52.32095 13.28946 2682 ft 197 kts 68°
2026-05-05 17:41 52.32583 13.30980 2391 ft 186 kts 68°
2026-05-05 17:41 52.33038 13.32880 2136 ft 173 kts 68°
2026-05-05 17:41 52.33463 13.34654 1935 ft 159 kts 67°
2026-05-05 17:42 52.33846 13.36257 1721 ft 145 kts 67°
2026-05-05 17:42 52.34205 13.37759 1527 ft 140 kts 67°
2026-05-05 17:42 52.34555 13.39220 1348 ft 137 kts 68°
2026-05-05 17:42 52.34903 13.40677 1160 ft 137 kts 66°
2026-05-05 17:43 52.35249 13.42125 989 ft 137 kts 66°
2026-05-05 17:43 52.35595 13.43577 808 ft 138 kts 68°
2026-05-05 17:43 52.35941 13.45029 639 ft 136 kts 68°
2026-05-05 17:43 52.36283 13.46466 464 ft 136 kts 67°
2026-05-05 17:44 52.36633 13.47885 299 ft 134 kts 69°
2026-05-05 17:44 52.36949 13.49305 167 ft 125 kts 60°
2026-05-05 17:44 52.37214 13.50350 156 ft 68 kts 71°
2026-05-05 17:44 52.37305 13.50988 159 ft 43 kts 92°
2026-05-05 17:45 52.37278 13.51272 162 ft 0 kts 98°
2026-05-05 17:45 52.37277 13.51275 162 ft 1 kts 99°
2026-05-05 17:46 52.37260 13.51310 161 ft 7 kts 140°
2026-05-05 17:46 52.37213 13.51312 160 ft 7 kts 204°
2026-05-05 17:46 52.37184 13.51244 159 ft 7 kts 246°
2026-05-05 17:46 52.37166 13.51171 159 ft 8 kts 248°
2026-05-05 17:47 52.37135 13.51042 159 ft 16 kts 248°
2026-05-05 17:47 52.37095 13.50869 159 ft 15 kts 250°
2026-05-05 17:47 52.37058 13.50709 158 ft 15 kts 249°
2026-05-05 17:47 52.37022 13.50554 156 ft 14 kts 246°
2026-05-05 17:48 52.36987 13.50408 155 ft 13 kts 247°
2026-05-05 17:48 52.36951 13.50268 154 ft 13 kts 248°
2026-05-05 17:48 52.36914 13.50149 152 ft 10 kts 220°
2026-05-05 17:48 52.36844 13.50148 151 ft 10 kts 158°
2026-05-05 17:49 52.36792 13.50180 153 ft 6 kts 160°
2026-05-05 17:49 52.36745 13.50177 152 ft 10 kts 195°
2026-05-05 17:49 52.36659 13.50185 151 ft 15 kts 162°
2026-05-05 17:49 52.36561 13.50245 151 ft 14 kts 158°
2026-05-05 17:50 52.36473 13.50303 151 ft 12 kts 160°
2026-05-05 17:50 52.36428 13.50376 152 ft 9 kts 76°
2026-05-05 17:50 52.36450 13.50467 154 ft 8 kts 68°
2026-05-05 17:50 52.36464 13.50526 154 ft 2 kts 69°
2026-05-05 17:51 52.36466 13.50534 154 ft 1 kts 69°
2026-05-05 17:51 52.36467 13.50535 154 ft 0 kts 69°